This demonstration page uses our WeatherBlox Daily Observations layout. Learn more.

Left ArrowRight Arrow

Hourly Observations for July 17, 2016

Temp ( °F °C ) Dew Point ( °F °C ) Humidity (%) Winds ( mph kmh ) Pressure ( in mb ) Visibility ( mi km ) Precip ( " mm )
12:24 am 00:24 Mostly Cloudy 76 24.4 71 21.7 85 85 WSW 5 7 30.15 1021 10 16 0.00 0.00
12:45 am 00:45 Mostly Cloudy with Light Rain 76 24.4 71 21.7 85 85 VRB 5 7 30.12 1020 7 11 0.00 0.00
12:47 am 00:47 Mostly Cloudy with Light Rain 76 24.4 71 21.7 85 85 S 5 7 30.12 1020 6 10 0.00 0.00
12:59 am 00:59 Mostly Cloudy with Light Rain 75 23.9 71 21.7 88 88 SW 3 6 30.12 1020 4 6 0.02 0.51
1:25 am 01:25 Mostly Cloudy 74 23.3 71 21.7 91 91 SW 6 9 30.12 1020 10 16 0.00 0.00
1:51 am 01:51 Mostly Cloudy with Light Rain 74 23.3 71 21.7 91 91 SW 7 11 30.12 1020 10 16 0.00 0.00
1:59 am 01:59 Mostly Cloudy with Light Rain 74 23.3 70 21.1 88 88 SSW 5 7 30.11 1020 10 16 0.00 0.00
2:59 am 02:59 Cloudy with Light Rain 73 22.8 71 21.7 94 94 SSW 8 13 30.10 1019 10 16 0.00 0.03
3:59 am 03:59 Mostly Cloudy with Light Rain 74 23.3 70 21.1 88 88 SW 6 9 30.11 1020 10 16 0.01 0.25
4:17 am 04:17 Mostly Cloudy 73 22.8 70 21.1 90 90 W 8 13 30.12 1020 10 16 0.00 0.00
4:59 am 04:59 Mostly Cloudy 74 23.3 71 21.7 91 91 W 7 11 30.12 1020 10 16 0.00 0.03
5:59 am 05:59 Mostly Cloudy 74 23.3 70 21.1 88 88 W 6 9 30.14 1021 10 16 0.00 0.00
6:59 am 06:59 Mostly Cloudy 74 23.3 70 21.1 88 88 W 7 11 30.14 1021 10 16 0.00 0.00
7:59 am 07:59 Mostly Cloudy 75 23.9 70 21.1 84 84 WSW 7 11 30.16 1021 10 16 0.00 0.00
8:59 am 08:59 Sunny 77 25 71 21.7 82 82 VRB 5 7 30.17 1022 10 16 0.00 0.00
9:59 am 09:59 Mostly Cloudy 80 26.7 72 22.2 76 76 SW 5 7 30.19 1022 10 16 0.00 0.00
10:59 am 10:59 Mostly Cloudy 82 27.8 72 22.2 72 72 Calm 30.20 1023 10 16 0.00 0.00
11:43 am 11:43 Mostly Cloudy 84 28.9 73 22.8 70 70 WSW 7 11 30.21 1023 10 16 0.00 0.00
11:59 am 11:59 Mostly Cloudy 83 28.3 73 22.8 72 72 SSW 6 9 30.20 1023 10 16 0.00 0.00
12:59 pm 12:59 Mostly Cloudy 85 29.4 72 22.2 65 65 VRB 7 11 30.20 1023 10 16 0.00 0.00
1:59 pm 13:59 Mostly Cloudy 87 30.6 72 22.2 61 61 undefined N/A 30.19 1022 10 16 0.00 0.00
2:18 pm 14:18 Partly Cloudy 88 31.1 73 22.8 61 61 W 9 15 30.18 1022 10 16 0.00 0.00
2:59 pm 14:59 Partly Cloudy 88 31.1 73 22.8 61 61 W 6 9 30.17 1022 10 16 0.00 0.00
3:59 pm 15:59 Partly Cloudy 89 31.7 73 22.8 59 59 SW 8 13 30.16 1022 10 16 0.00 0.00
4:59 pm 16:59 Sunny 89 31.7 71 21.7 55 55 VRB 7 11 30.16 1022 10 16 0.00 0.00
5:59 pm 17:59 Partly Cloudy 89 31.7 72 22.2 57 57 W 9 15 30.16 1021 10 16 0.00 0.00
6:59 pm 18:59 Partly Cloudy 88 31.1 71 21.7 57 57 W 7 11 30.17 1022 10 16 0.00 0.00
7:59 pm 19:59 Partly Cloudy 86 30 71 21.7 61 61 W 8 13 30.17 1022 10 16 0.00 0.00
8:59 pm 20:59 Mostly Clear 84 28.9 73 22.8 70 70 W 5 7 30.19 1022 10 16 0.00 0.00
9:59 pm 21:59 Clear 77 25 72 22.2 85 85 SW 5 7 30.19 1023 10 16 0.00 0.00
10:59 pm 22:59 Partly Cloudy 78 25.6 73 22.8 85 85 SSW 3 6 30.19 1022 10 16 0.00 0.00
11:59 pm 23:59 Partly Cloudy 77 25 73 22.8 88 88 SSW 3 6 30.19 1023 10 16 0.00 0.00

Powered by AerisWeather